Home > Weather > New Westminster > Past weeks

Flag for Canada Weather for the Past 2 Weeks in New Westminster, British Columbia, Canada

Now
50 °F

Cool.


Feels Like: 50 °F
Forecast: 44 / 52 °F
Wind: 1 mph from Northwest

Location: P. Meadows Coastal Station

Current Time: Feb 9, 2016 at 6:48:35 PM

Latest Report: Feb 9, 2016 at 6:00 PM


Visibility: N/A

Pressure: 30.12 "Hg

Humidity: 71%

Dew point: 40 °F

Location of New WestminsterLocation

Historic Weather in New Westminster — Graph

°F

New Westminster Temperature Yesterday

Maximum temperature yesterday: 59 °F (at 4:00 PM)
Minimum temperature yesterday: 37 °F (at 8:00 AM)
Average temperature yesterday: 45 °F

High & Low Weather Summary for the Past Weeks

 TemperatureHumidityPressure
High59 °F (Feb 9, 4:00 PM)100% (Jan 27, 2:00 PM)30.62 "Hg (Jan 27, 2:00 PM)
Low33 °F (Jan 30, 2:00 AM)55% (Feb 9, 4:00 PM)29.60 "Hg (Jan 29, 11:00 AM)
Average43 °F90%30.14 "Hg
* Reported Jan 25 5:00 PM — Feb 9 5:00 PM, New Westminster, Weather by CustomWeather, © 2016

Note: Actual official high and low records may vary slightly from our data, if they occured in-between our weather recording intervals... More about our weather records

Advertising

New Westminster Weather History for the Previous 24 Hours

 ConditionsComfort  
Time TempWeatherWind HumidityBarometerVisibility
5:00 PM
Tue, Feb 9
53 °FCool.2 mph68%30.11 "HgN/A
4:00 PM59 °FRefreshingly cool.1 mph55%30.12 "HgN/A
3:00 PM58 °FCool.1 mph61%30.12 "HgN/A
2:00 PM57 °FCool.1 mph66%30.13 "HgN/A
1:00 PM53 °FCool.1 mph75%30.15 "HgN/A
12:00 PM50 °FCool.3 mph81%30.19 "HgN/A
11:00 AM44 °FQuite cool.2 mph99%30.21 "HgN/A
10:00 AM39 °FChilly.2 mph99%30.22 "HgN/A
9:00 AM35 °FChilly.No wind100%30.21 "HgN/A
8:00 AM34 °FChilly.1 mph99%30.20 "HgN/A
7:00 AM34 °FChilly.1 mph99%30.20 "HgN/A
6:00 AM34 °FChilly.No wind99%30.21 "HgN/A
5:00 AM35 °FChilly.1 mph100%30.23 "HgN/A
4:00 AM36 °FChilly.1 mph99%30.24 "HgN/A
3:00 AM36 °FChilly.No wind99%30.25 "HgN/A
2:00 AM36 °FChilly.1 mph99%30.27 "HgN/A
1:00 AM36 °FChilly.2 mph99%30.29 "HgN/A
12:00 AM37 °FChilly.1 mph92%30.31 "HgN/A
11:00 PM
Mon, Feb 8
39 °FChilly.1 mph98%30.33 "HgN/A
10:00 PM40 °FChilly.1 mph97%30.34 "HgN/A
9:00 PM42 °FQuite cool.No wind97%30.35 "HgN/A
8:00 PM44 °FQuite cool.1 mph95%30.36 "HgN/A
7:00 PM46 °FCool.2 mph91%30.37 "HgN/A
6:00 PM50 °FCool.1 mph85%30.38 "HgN/A
Weather by CustomWeather, © 2016

See weather overviewHow to use our weather pages